Regional Weather Roundup
Issued by NWS

Home | Current Version | Previous Version | Text Only | Print | Product List | Glossary Off
Versions: 1 2 3 4 5 6 7 8 9 10 11 12 13 14 15 16 17 18 19 20 21 22 23 24 25 26 27 28 29 30 31 32 33 34 35 36 37 38 39 40 41 42 43 44 45 46 47 48 49 50

000
ASUS43 KMPX 172001
RWRMN
WEATHER ROUNDUP FOR MINNESOTA
NATIONAL WEATHER SERVICE TWIN CITIES/CHANHASSEN MN
300 PM CDT TUE OCT 17 2017


NOTE: "FAIR" INDICATES FEW OR NO CLOUDS BELOW 12,000 FEET WITH NO
SIGNIFICANT WEATHER AND/OR OBSTRUCTIONS TO VISIBILITY. N/A MEANS
CURRENT SKY AND/OR WEATHER CONDITIONS ARE NOT AVAILABLE.

MNZ060>063-068>070-172100-
   Twin Cities Metro

CITY           SKY/WX    TMP DP  RH WIND       PRES   REMARKS
TWIN CITIES    MOSUNNY   71  45  39 SW6       29.95F
ST PAUL        SUNNY     70  45  40 S6        29.96F
CRYSTAL        SUNNY     70  43  37 S12       29.94F
BLAINE         MOSUNNY   72  43  35 S7        29.94F
LAKEVILLE      SUNNY     72  43  35 SW5       29.96F
EDEN PRAIRIE   SUNNY     72  45  37 VRB3      29.94F
SOUTH ST PAUL  SUNNY     72  42  34 SW8       29.95F
LAKE ELMO      FAIR      70  46  43 S9        29.97F
$$
MNZ001>005-007-008-013>017-022>024-027-028-172100-
   Northwest Minnesota

CITY           SKY/WX    TMP DP  RH WIND       PRES   REMARKS
BEMIDJI        SUNNY     70  37  29 SW14      29.85F
HALLOCK        SUNNY     73  32  21 S16G23    29.69F
ROSEAU         SUNNY     72  39  30 SW18G29   29.72F
WARROAD        SUNNY     72  43  35 S9G18     29.74F
CROOKSTON      SUNNY     73  37  27 S22G28    29.76F
FOSSTON        SUNNY     72  34  25 S20       29.82F
DETROIT LAKES  CLOUDY    68  37  32 S8        29.87F
MOORHEAD       SUNNY     73  37  27 SW15      29.82F
PARK RAPIDS    SUNNY     69  39  33 SW10      29.88F
MAHNOMEN       FAIR      70  38  31 S17       29.82F
$$
MNZ006-009>011-018-025>026-172100-
   North Central Minnesota

CITY           SKY/WX    TMP DP  RH WIND       PRES   REMARKS
BAUDETTE         N/A     71  36  27 S17G25    29.77F
FLAG ISLAND    SUNNY     59  45  58 S10       29.73F
INTL FALLS     SUNNY     71  35  26 SW13G23   29.81F
WASKISH        MOSUNNY   70  37  30 SW13      29.82F
BIG FORK       MOSUNNY   70  36  28 SW16G22   29.86F
LONGVILLE      SUNNY     70  37  30 SW9       29.88F
GRAND RAPIDS   SUNNY     68  36  30 SW14      29.90F
CRANE LAKE     SUNNY     68  30  24 S8        29.86F
ORR            SUNNY     70  30  23 SW7       29.83F
COOK           SUNNY     70  36  28 SW12G18   29.87F
WALKER         FAIR      69  37  31 SW15      29.87F
$$
MNZ012-019>021-037-172100-
   Northeast Minnesota

CITY           SKY/WX    TMP DP  RH WIND       PRES   REMARKS
DULUTH         MOSUNNY   67  36  31 SW13      29.91F
ELY            SUNNY     66  28  24 SW12G17   29.88F
HIBBING        SUNNY     67  34  29 SW9G21    29.88F
EVELETH        SUNNY     69  11  10 SW13      29.90F
DULUTH HARBOR  SUNNY     70  39  32 S8        29.90F
TWO HARBORS    SUNNY     72  46  40 S13       29.89F
GRAND MARAIS     N/A     55  49  80 SW8       29.91F
G MARAIS ARPRT SUNNY     63  28  27 S9G17     29.92F
$$
MNZ029>031-032-039>041-046>048-054>057-064-172100-
   West Central Minnesota

CITY           SKY/WX    TMP DP  RH WIND       PRES   REMARKS
FERGUS FALLS   CLOUDY    72  43  35 SW12      29.87F
WHEATON        SUNNY     77  32  19 SW14      29.88F
MORRIS         SUNNY     73  43  33 SW9G16    29.89F
ALEXANDRIA     SUNNY     72  40  31 S13       29.92F
ELBOW LAKE     FAIR      72  42  33 SW13      29.89F
WADENA         CLOUDY    70  39  32 S9        29.89F
GLENWOOD       SUNNY     72  39  30 SW13G18   29.92F
APPLETON       SUNNY     77  32  19 SW9       29.90F
BENSON         SUNNY     73  37  27 W13       29.92F
ORTONVILLE     SUNNY     75  39  27 NW8       29.89F
MADISON        SUNNY     79  36  21 SW16      29.91F
WILLMAR        FAIR      73  39  29 SW8       29.94F
$$
MNZ033>034-036-042>043-049>051-058-059-172100-
   Central Minnesota

CITY           SKY/WX    TMP DP  RH WIND       PRES   REMARKS
ST CLOUD       SUNNY     72  42  34 SW10      29.92F
SAUK CENTRE    FAIR      71  38  30 SW10      29.92F
PAYNESVILLE    SUNNY     72  38  29 SW10G18   29.93F
AITKIN         SUNNY     68  37  32 S8G16     29.89F
PINE RIVER     SUNNY     68  39  34 SW8       29.92F
BRAINERD       CLOUDY    69  40  34 SW12      29.91F
STAPLES        CLOUDY    70  34  26 SW10      29.91F
LONG PRAIRIE   FAIR      70  37  30 S9G16     29.93S
LITTLE FALLS   SUNNY     70  27  19 SW8       29.92F
LITCHFIELD     SUNNY     73  41  31 SW6       29.94F
BUFFALO        SUNNY     71  39  31 S7        29.95F
MAPLE LAKE     SUNNY     74  42  32 SW6       29.94F
HUTCHINSON     SUNNY     74  42  31 S3        29.96F
$$
MNZ037-044-045-052-053-172100-
   East Central Minnesota

CITY           SKY/WX    TMP DP  RH WIND       PRES   REMARKS
PRINCETON      SUNNY     73  43  33 S9        29.93F
MORA           CLOUDY    68  37  32 SW8       29.94F
CAMBRIDGE      SUNNY     73  50  43 S7        29.93F
RUSH CITY      SUNNY     70  40  32 SW7       29.93F
MOOSE LAKE     SUNNY     70  41  35 SW9G17    29.90F
HINCKLEY       FAIR      70  45  40 SW7       29.93F
CLOQUET        SUNNY     66  32  28 S9        29.91F
MCGREGOR       SUNNY     68  37  32 SW13      29.91F
$$
MNZ071>073-080-081-089-090-097-098-172100-
   Southwest Minnesota

CITY           SKY/WX    TMP DP  RH WIND       PRES   REMARKS
MONTEVIDEO     SUNNY     81  36  19 W7        29.92F
GRANITE FALLS  SUNNY     77  40  26 SW9       29.94F
CANBY          SUNNY     76  36  23 SW8G16    29.94F
MARSHALL       SUNNY     76  38  25 SW10G18   29.94F
REDWOOD FALLS  SUNNY     76  33  21 W13       29.93F
OLIVIA         SUNNY     73  41  31 SW9       29.93F
PIPESTONE      SUNNY     75  37  25 W6        29.97F
WORTHINGTON    SUNNY     75  38  26 SW12      29.99F
JACKSON        SUNNY     73  34  23 SW10      29.99F
TRACY          SUNNY     76  38  25 SW8       29.96F
SLAYTON        SUNNY    N/A N/A N/A SW12      29.99F
$$
MNZ065>067-074>077-082>085-091>093-172100-
   South Central Minnesota

CITY           SKY/WX    TMP DP  RH WIND       PRES   REMARKS
MANKATO        SUNNY     74  41  30 SW8       29.97F
NEW ULM        SUNNY     73  39  29 SW7       29.95F
ST JAMES       SUNNY     77  36  22 S10       29.96F
FAIRMONT       SUNNY     75  40  28 SW9       29.98F
GLENCOE        SUNNY     74  39  28 SW6       29.95F
FARIBAULT      SUNNY     73  43  33 SW8       29.97F
OWATONNA       SUNNY     75  41  29 SW10      29.97F
WASECA         SUNNY     73  37  27 SW7       29.98F
ALBERT LEA     SUNNY     73  43  33 SW7       29.99F
$$
MNZ078>079-086>088-094>096-172100-
   Southeast Minnesota

CITY           SKY/WX    TMP DP  RH WIND       PRES   REMARKS
ROCHESTER      SUNNY     71  45  39 S13       30.00F
RED WING       SUNNY     73  39  29 S5        29.95F
STANTON        SUNNY     74  37  26 SW7G17    29.95F
DODGE CENTER   SUNNY     73  37  27 SW12      29.99F
WINONA         SUNNY     73  45  35 CALM      29.99F
AUSTIN           N/A     72  43  35 S8        30.00F
PRESTON        SUNNY     70  42  37 S9        30.01F
$$
ABBREVIATIONS USED IN REMARKS
   TC - TEMPERATURES IN CELSIUS
  WCI - WIND CHILL INDEX
   HX - HEAT INDEX
  VSB - VISIBILITY
$$



USA.gov is the U.S. government's official web portal to all federal, state and local government web resources and services.